Year,Month,Day,Hour,Minute,Value (Times are PST for barometer in hPa)
2020,11,13,00,00,994.58
2020,11,13,00,01,994.60
2020,11,13,00,02,994.55
2020,11,13,00,03,994.55
2020,11,13,00,04,994.55
2020,11,13,00,05,994.55
2020,11,13,00,06,994.52
2020,11,13,00,07,994.43
2020,11,13,00,08,994.35
2020,11,13,00,09,994.36
2020,11,13,00,10,994.36
2020,11,13,00,11,994.30
2020,11,13,00,12,994.27
2020,11,13,00,13,994.22
2020,11,13,00,14,994.17
2020,11,13,00,15,994.13
2020,11,13,00,16,994.12
2020,11,13,00,17,994.13
2020,11,13,00,18,994.08
2020,11,13,00,19,994.01
2020,11,13,00,20,994.00
2020,11,13,00,21,993.97
2020,11,13,00,22,993.96
2020,11,13,00,23,993.92
2020,11,13,00,24,993.87
2020,11,13,00,25,993.87
2020,11,13,00,26,993.86
2020,11,13,00,27,993.84
2020,11,13,00,28,993.84
2020,11,13,00,29,993.83
2020,11,13,00,30,993.78
2020,11,13,00,31,993.73
2020,11,13,00,32,993.69
2020,11,13,00,33,993.66
2020,11,13,00,34,993.62
2020,11,13,00,35,993.59
2020,11,13,00,36,993.56
2020,11,13,00,37,993.53
2020,11,13,00,38,993.52
2020,11,13,00,39,993.49
2020,11,13,00,40,993.48
2020,11,13,00,41,993.48
2020,11,13,00,42,993.40
2020,11,13,00,43,993.38
2020,11,13,00,44,993.29
2020,11,13,00,45,993.23
2020,11,13,00,46,993.16
2020,11,13,00,47,993.14
2020,11,13,00,48,993.07
2020,11,13,00,49,993.08
2020,11,13,00,50,993.04
2020,11,13,00,51,992.97
2020,11,13,00,52,992.91
2020,11,13,00,53,992.89
2020,11,13,00,54,992.87
2020,11,13,00,55,992.82
2020,11,13,00,56,992.80
2020,11,13,00,57,992.74
2020,11,13,00,58,992.71
2020,11,13,00,59,992.68
2020,11,13,01,00,992.66
2020,11,13,01,01,992.67
2020,11,13,01,02,992.62
2020,11,13,01,03,992.60
2020,11,13,01,04,992.54
2020,11,13,01,05,992.50
2020,11,13,01,06,992.42
2020,11,13,01,07,992.34
2020,11,13,01,08,992.31
2020,11,13,01,09,992.29
2020,11,13,01,10,992.25
2020,11,13,01,11,992.22
2020,11,13,01,12,992.14
2020,11,13,01,13,992.14
2020,11,13,01,14,992.13
2020,11,13,01,15,992.10
2020,11,13,01,16,992.07
2020,11,13,01,17,992.03
2020,11,13,01,18,991.98
2020,11,13,01,19,991.91
2020,11,13,01,20,991.89
2020,11,13,01,21,991.84
2020,11,13,01,22,991.82
2020,11,13,01,23,991.77
2020,11,13,01,24,991.77
2020,11,13,01,25,991.76
2020,11,13,01,26,991.73
2020,11,13,01,27,991.69
2020,11,13,01,28,991.66
2020,11,13,01,29,991.62
2020,11,13,01,30,991.56
2020,11,13,01,31,991.53
2020,11,13,01,32,991.54
2020,11,13,01,33,991.57
2020,11,13,01,34,991.56
2020,11,13,01,35,991.53
2020,11,13,01,36,991.52
2020,11,13,01,37,991.49
2020,11,13,01,38,991.46
2020,11,13,01,39,991.42
2020,11,13,01,40,991.38
2020,11,13,01,41,991.33
2020,11,13,01,42,991.34
2020,11,13,01,43,991.35
2020,11,13,01,44,991.28
2020,11,13,01,45,991.21
2020,11,13,01,46,991.14
2020,11,13,01,47,991.07
2020,11,13,01,48,991.01
2020,11,13,01,49,990.93
2020,11,13,01,50,990.86
2020,11,13,01,51,990.84
2020,11,13,01,52,990.77
2020,11,13,01,53,990.72
2020,11,13,01,54,990.72
2020,11,13,01,55,990.71
2020,11,13,01,56,990.68
2020,11,13,01,57,990.64
2020,11,13,01,58,990.61
2020,11,13,01,59,990.60
2020,11,13,02,00,990.59
2020,11,13,02,01,990.53
2020,11,13,02,02,990.53
2020,11,13,02,03,990.51
2020,11,13,02,04,990.55
2020,11,13,02,05,990.55
2020,11,13,02,06,990.53
2020,11,13,02,07,990.48
2020,11,13,02,08,990.45
2020,11,13,02,09,990.44
2020,11,13,02,10,990.41
2020,11,13,02,11,990.38
2020,11,13,02,12,990.37
2020,11,13,02,13,990.34
2020,11,13,02,14,990.32
2020,11,13,02,15,990.30
2020,11,13,02,16,990.26
2020,11,13,02,17,990.26
2020,11,13,02,18,990.18
2020,11,13,02,19,990.15
2020,11,13,02,20,990.09
2020,11,13,02,21,990.09
2020,11,13,02,22,990.03
2020,11,13,02,23,990.00
2020,11,13,02,24,989.97
2020,11,13,02,25,989.94
2020,11,13,02,26,989.93
2020,11,13,02,27,989.90
2020,11,13,02,28,989.88
2020,11,13,02,29,989.87
2020,11,13,02,30,989.83
2020,11,13,02,31,989.82
2020,11,13,02,32,989.84
2020,11,13,02,33,989.81
2020,11,13,02,34,989.73
2020,11,13,02,35,989.68
2020,11,13,02,36,989.59
2020,11,13,02,37,989.54
2020,11,13,02,38,989.53
2020,11,13,02,39,989.49
2020,11,13,02,40,989.47
2020,11,13,02,41,989.46
2020,11,13,02,42,989.42
2020,11,13,02,43,989.34
2020,11,13,02,44,989.26
2020,11,13,02,45,989.25
2020,11,13,02,46,989.28
2020,11,13,02,47,989.18
2020,11,13,02,48,989.12
2020,11,13,02,49,989.08
2020,11,13,02,50,989.02
2020,11,13,02,51,988.97
2020,11,13,02,52,988.88
2020,11,13,02,53,988.86
2020,11,13,02,54,988.84
2020,11,13,02,55,988.78
2020,11,13,02,56,988.74
2020,11,13,02,57,988.69
2020,11,13,02,58,988.69
2020,11,13,02,59,988.68
2020,11,13,03,00,988.66
2020,11,13,03,01,988.64
2020,11,13,03,02,988.59
2020,11,13,03,03,988.57
2020,11,13,03,04,988.51
2020,11,13,03,05,988.47
2020,11,13,03,06,988.41
2020,11,13,03,07,988.38
2020,11,13,03,08,988.34
2020,11,13,03,09,988.31
2020,11,13,03,10,988.27
2020,11,13,03,11,988.25
2020,11,13,03,12,988.26
2020,11,13,03,13,988.26
2020,11,13,03,14,988.21
2020,11,13,03,15,988.16
2020,11,13,03,16,988.10
2020,11,13,03,17,988.07
2020,11,13,03,18,988.03
2020,11,13,03,19,987.94
2020,11,13,03,20,987.90
2020,11,13,03,21,987.89
2020,11,13,03,22,987.89
2020,11,13,03,23,987.85
2020,11,13,03,24,987.86
2020,11,13,03,25,987.80
2020,11,13,03,26,987.77
2020,11,13,03,27,987.72
2020,11,13,03,28,987.68
2020,11,13,03,29,987.68
2020,11,13,03,30,987.59
2020,11,13,03,31,987.53
2020,11,13,03,32,987.50
2020,11,13,03,33,987.46
2020,11,13,03,34,987.42
2020,11,13,03,35,987.37
2020,11,13,03,36,987.37
2020,11,13,03,37,987.36
2020,11,13,03,38,987.36
2020,11,13,03,39,987.39
2020,11,13,03,40,987.37
2020,11,13,03,41,987.37
2020,11,13,03,42,987.36
2020,11,13,03,43,987.33
2020,11,13,03,44,987.29
2020,11,13,03,45,987.27
2020,11,13,03,46,987.26
2020,11,13,03,47,987.22
2020,11,13,03,48,987.18
2020,11,13,03,49,987.11
2020,11,13,03,50,987.05
2020,11,13,03,51,987.01
2020,11,13,03,52,986.95
2020,11,13,03,53,986.92
2020,11,13,03,54,986.89
2020,11,13,03,55,986.86
2020,11,13,03,56,986.85
2020,11,13,03,57,986.83
2020,11,13,03,58,986.83
2020,11,13,03,59,986.82
2020,11,13,04,00,986.78
2020,11,13,04,01,986.76
2020,11,13,04,02,986.76
2020,11,13,04,03,986.74
2020,11,13,04,04,986.70
2020,11,13,04,05,986.74
2020,11,13,04,06,986.77
2020,11,13,04,07,986.80
2020,11,13,04,08,986.83
2020,11,13,04,09,986.83
2020,11,13,04,10,986.84
2020,11,13,04,11,986.83
2020,11,13,04,12,986.77
2020,11,13,04,13,986.77
2020,11,13,04,14,986.71
2020,11,13,04,15,986.66
2020,11,13,04,16,986.64
2020,11,13,04,17,986.59
2020,11,13,04,18,986.58
2020,11,13,04,19,986.54
2020,11,13,04,20,986.48
2020,11,13,04,21,986.46
2020,11,13,04,22,986.47
2020,11,13,04,23,986.48
2020,11,13,04,24,986.45
2020,11,13,04,25,986.43
2020,11,13,04,26,986.46
2020,11,13,04,27,986.46
2020,11,13,04,28,986.45
2020,11,13,04,29,986.42
2020,11,13,04,30,986.41
2020,11,13,04,31,986.38
2020,11,13,04,32,986.33
2020,11,13,04,33,986.28
2020,11,13,04,34,986.25
2020,11,13,04,35,986.25
2020,11,13,04,36,986.26
2020,11,13,04,37,986.28
2020,11,13,04,38,986.28
2020,11,13,04,39,986.34
2020,11,13,04,40,986.33
2020,11,13,04,41,986.35
2020,11,13,04,42,986.36
2020,11,13,04,43,986.39
2020,11,13,04,44,986.38
2020,11,13,04,45,986.34
2020,11,13,04,46,986.32
2020,11,13,04,47,986.33
2020,11,13,04,48,986.34
2020,11,13,04,49,986.32
2020,11,13,04,50,986.32
2020,11,13,04,51,986.31
2020,11,13,04,52,986.29
2020,11,13,04,53,986.27
2020,11,13,04,54,986.23
2020,11,13,04,55,986.25
2020,11,13,04,56,986.25
2020,11,13,04,57,986.24
2020,11,13,04,58,986.23
2020,11,13,04,59,986.25
2020,11,13,05,00,986.25
2020,11,13,05,01,986.25
2020,11,13,05,02,986.25
2020,11,13,05,03,986.26
2020,11,13,05,04,986.28
2020,11,13,05,05,986.26
2020,11,13,05,06,986.28
2020,11,13,05,07,986.24
2020,11,13,05,08,986.22
2020,11,13,05,09,986.22
2020,11,13,05,10,986.22
2020,11,13,05,11,986.20
2020,11,13,05,12,986.16
2020,11,13,05,13,986.16
2020,11,13,05,14,986.12
2020,11,13,05,15,986.11
2020,11,13,05,16,986.07
2020,11,13,05,17,986.02
2020,11,13,05,18,985.95
2020,11,13,05,19,985.93
2020,11,13,05,20,985.87
2020,11,13,05,21,985.84
2020,11,13,05,22,985.81
2020,11,13,05,23,985.81
2020,11,13,05,24,985.79
2020,11,13,05,25,985.73
2020,11,13,05,26,985.69
2020,11,13,05,27,985.65
2020,11,13,05,28,985.67
2020,11,13,05,29,985.64
2020,11,13,05,30,985.61
2020,11,13,05,31,985.51
2020,11,13,05,32,985.40
2020,11,13,05,33,985.26
2020,11,13,05,34,985.11
2020,11,13,05,35,984.92
2020,11,13,05,36,984.74
2020,11,13,05,37,984.48
2020,11,13,05,38,984.12
2020,11,13,05,39,983.81
2020,11,13,05,40,983.39
2020,11,13,05,41,983.14
2020,11,13,05,42,983.07
2020,11,13,05,43,983.22
2020,11,13,05,44,983.52
2020,11,13,05,45,983.79
2020,11,13,05,46,984.02
2020,11,13,05,47,984.14
2020,11,13,05,48,984.20
2020,11,13,05,49,984.22
2020,11,13,05,50,984.23
2020,11,13,05,51,984.27
2020,11,13,05,52,984.39
2020,11,13,05,53,984.60
2020,11,13,05,54,984.72
2020,11,13,05,55,984.81
2020,11,13,05,56,984.84
2020,11,13,05,57,984.85
2020,11,13,05,58,984.82
2020,11,13,05,59,984.79
2020,11,13,06,00,984.73
2020,11,13,06,01,984.61
2020,11,13,06,02,984.54
2020,11,13,06,03,984.50
2020,11,13,06,04,984.53
2020,11,13,06,05,984.54
2020,11,13,06,06,984.58
2020,11,13,06,07,984.64
2020,11,13,06,08,984.66
2020,11,13,06,09,984.66
2020,11,13,06,10,984.66
2020,11,13,06,11,984.66
2020,11,13,06,12,984.66
2020,11,13,06,13,984.65
2020,11,13,06,14,984.62
2020,11,13,06,15,984.61
2020,11,13,06,16,984.63
2020,11,13,06,17,984.58
2020,11,13,06,18,984.64
2020,11,13,06,19,984.66
2020,11,13,06,20,984.65
2020,11,13,06,21,984.62
2020,11,13,06,22,984.59
2020,11,13,06,23,984.59
2020,11,13,06,24,984.58
2020,11,13,06,25,984.54
2020,11,13,06,26,984.50
2020,11,13,06,27,984.52
2020,11,13,06,28,984.48
2020,11,13,06,29,984.45
2020,11,13,06,30,984.42
2020,11,13,06,31,984.42
2020,11,13,06,32,984.42
2020,11,13,06,33,984.40
2020,11,13,06,34,984.32
2020,11,13,06,35,984.30
2020,11,13,06,36,984.24
2020,11,13,06,37,984.21
2020,11,13,06,38,984.18
2020,11,13,06,39,984.15
2020,11,13,06,40,984.15
2020,11,13,06,41,984.16
2020,11,13,06,42,984.19
2020,11,13,06,43,984.20
2020,11,13,06,44,984.22
2020,11,13,06,45,984.21
2020,11,13,06,46,984.19
2020,11,13,06,47,984.19
2020,11,13,06,48,984.19
2020,11,13,06,49,984.20
2020,11,13,06,50,984.22
2020,11,13,06,51,984.22
2020,11,13,06,52,984.22
2020,11,13,06,53,984.24
2020,11,13,06,54,984.28
2020,11,13,06,55,984.25
2020,11,13,06,56,984.25
2020,11,13,06,57,984.25
2020,11,13,06,58,984.24
2020,11,13,06,59,984.21
2020,11,13,07,00,984.19
2020,11,13,07,01,984.19
2020,11,13,07,02,984.20
2020,11,13,07,03,984.21
2020,11,13,07,04,984.18
2020,11,13,07,05,984.16
2020,11,13,07,06,984.16
2020,11,13,07,07,984.07
2020,11,13,07,08,984.05
2020,11,13,07,09,984.06
2020,11,13,07,10,984.08
2020,11,13,07,11,984.08
2020,11,13,07,12,984.08
2020,11,13,07,13,984.09
2020,11,13,07,14,984.12
2020,11,13,07,15,984.12
2020,11,13,07,16,984.13
2020,11,13,07,17,984.15
2020,11,13,07,18,984.13
2020,11,13,07,19,984.09
2020,11,13,07,20,984.11
2020,11,13,07,21,984.10
2020,11,13,07,22,984.15
2020,11,13,07,23,984.16
2020,11,13,07,24,984.19
2020,11,13,07,25,984.20
2020,11,13,07,26,984.22
2020,11,13,07,27,984.21
2020,11,13,07,28,984.19
2020,11,13,07,29,984.18
2020,11,13,07,30,984.16
2020,11,13,07,31,984.19
2020,11,13,07,32,984.19
2020,11,13,07,33,984.19
2020,11,13,07,34,984.19
2020,11,13,07,35,984.19
2020,11,13,07,36,984.20
2020,11,13,07,37,984.22
2020,11,13,07,38,984.22
2020,11,13,07,39,984.24
2020,11,13,07,40,984.28
2020,11,13,07,41,984.27
2020,11,13,07,42,984.34
2020,11,13,07,43,984.37
2020,11,13,07,44,984.32
2020,11,13,07,45,984.34
2020,11,13,07,46,984.39
2020,11,13,07,47,984.39
2020,11,13,07,48,984.40
2020,11,13,07,49,984.42
2020,11,13,07,50,984.41
2020,11,13,07,51,984.36
2020,11,13,07,52,984.30
2020,11,13,07,53,984.31
2020,11,13,07,54,984.29
2020,11,13,07,55,984.30
2020,11,13,07,56,984.31
2020,11,13,07,57,984.32
2020,11,13,07,58,984.39
2020,11,13,07,59,984.40
2020,11,13,08,00,984.41
2020,11,13,08,01,984.39
2020,11,13,08,02,984.40
2020,11,13,08,03,984.42
2020,11,13,08,04,984.42
2020,11,13,08,05,984.39
2020,11,13,08,06,984.34
2020,11,13,08,07,984.39
2020,11,13,08,08,984.40
2020,11,13,08,09,984.41
2020,11,13,08,10,984.40
2020,11,13,08,11,984.38
2020,11,13,08,12,984.30
2020,11,13,08,13,984.32
2020,11,13,08,14,984.34
2020,11,13,08,15,984.37
2020,11,13,08,16,984.35
2020,11,13,08,17,984.41
2020,11,13,08,18,984.39
2020,11,13,08,19,984.39
2020,11,13,08,20,984.36
2020,11,13,08,21,984.29
2020,11,13,08,22,984.32
2020,11,13,08,23,984.37
2020,11,13,08,24,984.32
2020,11,13,08,25,984.32
2020,11,13,08,26,984.31
2020,11,13,08,27,984.27
2020,11,13,08,28,984.25
2020,11,13,08,29,984.31
2020,11,13,08,30,984.29
2020,11,13,08,31,984.29
2020,11,13,08,32,984.29
2020,11,13,08,33,984.28
2020,11,13,08,34,984.26
2020,11,13,08,35,984.28
2020,11,13,08,36,984.27
2020,11,13,08,37,984.32
2020,11,13,08,38,984.34
2020,11,13,08,39,984.39
2020,11,13,08,40,984.37
2020,11,13,08,41,984.34
2020,11,13,08,42,984.36
2020,11,13,08,43,984.29
2020,11,13,08,44,984.32
2020,11,13,08,45,984.37
2020,11,13,08,46,984.35
2020,11,13,08,47,984.43
2020,11,13,08,48,984.46
2020,11,13,08,49,984.47
2020,11,13,08,50,984.49
2020,11,13,08,51,984.50
2020,11,13,08,52,984.53
2020,11,13,08,53,984.53
2020,11,13,08,54,984.56
2020,11,13,08,55,984.63
2020,11,13,08,56,984.65
2020,11,13,08,57,984.70
2020,11,13,08,58,984.73
2020,11,13,08,59,984.75
2020,11,13,09,00,984.81
2020,11,13,09,01,984.83
2020,11,13,09,02,984.84
2020,11,13,09,03,984.87
2020,11,13,09,04,984.89
2020,11,13,09,05,984.87
2020,11,13,09,06,984.92
2020,11,13,09,07,984.97
2020,11,13,09,08,985.00
2020,11,13,09,09,985.07
2020,11,13,09,10,985.09
2020,11,13,09,11,985.14
2020,11,13,09,12,985.17
2020,11,13,09,13,985.21
2020,11,13,09,14,985.29
2020,11,13,09,15,985.29
2020,11,13,09,16,985.35
2020,11,13,09,17,985.39
2020,11,13,09,18,985.48
2020,11,13,09,19,985.57
2020,11,13,09,20,985.57
2020,11,13,09,21,985.58
2020,11,13,09,22,985.61
2020,11,13,09,23,985.61
2020,11,13,09,24,985.60
2020,11,13,09,25,985.57
2020,11,13,09,26,985.58
2020,11,13,09,27,985.62
2020,11,13,09,28,985.65
2020,11,13,09,29,985.66
2020,11,13,09,30,985.65
2020,11,13,09,31,985.74
2020,11,13,09,32,985.77
2020,11,13,09,33,985.82
2020,11,13,09,34,985.77
2020,11,13,09,35,985.84
2020,11,13,09,36,985.81
2020,11,13,09,37,985.82
2020,11,13,09,38,985.84
2020,11,13,09,39,985.85
2020,11,13,09,40,985.93
2020,11,13,09,41,985.90
2020,11,13,09,42,985.95
2020,11,13,09,43,985.98
2020,11,13,09,44,986.08
2020,11,13,09,45,986.15
2020,11,13,09,46,986.18
2020,11,13,09,47,986.26
2020,11,13,09,48,986.29
2020,11,13,09,49,986.31
2020,11,13,09,50,986.36
2020,11,13,09,51,986.38
2020,11,13,09,52,986.38
2020,11,13,09,53,986.44
2020,11,13,09,54,986.41
2020,11,13,09,55,986.47
2020,11,13,09,56,986.52
2020,11,13,09,57,986.61
2020,11,13,09,58,986.65
2020,11,13,09,59,986.62
2020,11,13,10,00,986.62
2020,11,13,10,01,986.64
2020,11,13,10,02,986.71
2020,11,13,10,03,986.77
2020,11,13,10,04,986.79
2020,11,13,10,05,986.81
2020,11,13,10,06,986.88
2020,11,13,10,07,986.94
2020,11,13,10,08,986.97
2020,11,13,10,09,987.02
2020,11,13,10,10,987.07
2020,11,13,10,11,987.12
2020,11,13,10,12,987.21
2020,11,13,10,13,987.23
2020,11,13,10,14,987.27
2020,11,13,10,15,987.38
2020,11,13,10,16,987.40
2020,11,13,10,17,987.41
2020,11,13,10,18,987.44
2020,11,13,10,19,987.45
2020,11,13,10,20,987.47
2020,11,13,10,21,987.47
2020,11,13,10,22,987.49
2020,11,13,10,23,987.57
2020,11,13,10,24,987.63
2020,11,13,10,25,987.61
2020,11,13,10,26,987.66
2020,11,13,10,27,987.77
2020,11,13,10,28,987.76
2020,11,13,10,29,987.82
2020,11,13,10,30,987.88
2020,11,13,10,31,987.99
2020,11,13,10,32,987.99
2020,11,13,10,33,987.97
2020,11,13,10,34,988.01
2020,11,13,10,35,988.04
2020,11,13,10,36,988.13
2020,11,13,10,37,988.19
2020,11,13,10,38,988.22
2020,11,13,10,39,988.22
2020,11,13,10,40,988.24
2020,11,13,10,41,988.27
2020,11,13,10,42,988.26
2020,11,13,10,43,988.29
2020,11,13,10,44,988.32
2020,11,13,10,45,988.31
2020,11,13,10,46,988.30
2020,11,13,10,47,988.36
2020,11,13,10,48,988.40
2020,11,13,10,49,988.43
2020,11,13,10,50,988.46
2020,11,13,10,51,988.48
2020,11,13,10,52,988.46
2020,11,13,10,53,988.49
2020,11,13,10,54,988.49
2020,11,13,10,55,988.49
2020,11,13,10,56,988.50
2020,11,13,10,57,988.51
2020,11,13,10,58,988.50
2020,11,13,10,59,988.52
2020,11,13,11,00,988.52
2020,11,13,11,01,988.54
2020,11,13,11,02,988.60
2020,11,13,11,03,988.63
2020,11,13,11,04,988.67
2020,11,13,11,05,988.69
2020,11,13,11,06,988.72
2020,11,13,11,07,988.80
2020,11,13,11,08,988.83
2020,11,13,11,09,988.83
2020,11,13,11,10,988.84
2020,11,13,11,11,988.87
2020,11,13,11,12,988.88
2020,11,13,11,13,988.88
2020,11,13,11,14,988.94
2020,11,13,11,15,988.97
2020,11,13,11,16,989.00
2020,11,13,11,17,989.00
2020,11,13,11,18,989.01
2020,11,13,11,19,989.03
2020,11,13,11,20,989.03
2020,11,13,11,21,989.04
2020,11,13,11,22,989.06
2020,11,13,11,23,989.07
2020,11,13,11,24,989.09
2020,11,13,11,25,989.07
2020,11,13,11,26,989.11
2020,11,13,11,27,989.13
2020,11,13,11,28,989.15
2020,11,13,11,29,989.19
2020,11,13,11,30,989.17
2020,11,13,11,31,989.23
2020,11,13,11,32,989.29
2020,11,13,11,33,989.28
2020,11,13,11,34,989.30
2020,11,13,11,35,989.31
2020,11,13,11,36,989.33
2020,11,13,11,37,989.34
2020,11,13,11,38,989.38
2020,11,13,11,39,989.39
2020,11,13,11,40,989.40
2020,11,13,11,41,989.47
2020,11,13,11,42,989.47
2020,11,13,11,43,989.49
2020,11,13,11,44,989.54
2020,11,13,11,45,989.55
2020,11,13,11,46,989.58
2020,11,13,11,47,989.63
2020,11,13,11,48,989.71
2020,11,13,11,49,989.70
2020,11,13,11,50,989.68
2020,11,13,11,51,989.71
2020,11,13,11,52,989.69
2020,11,13,11,53,989.66
2020,11,13,11,54,989.70
2020,11,13,11,55,989.71
2020,11,13,11,56,989.82
2020,11,13,11,57,989.84
2020,11,13,11,58,989.84
2020,11,13,11,59,989.86
2020,11,13,12,00,989.91
2020,11,13,12,01,989.91
2020,11,13,12,02,989.93
2020,11,13,12,03,989.97
2020,11,13,12,04,989.95
2020,11,13,12,05,989.99
2020,11,13,12,06,990.02
2020,11,13,12,07,990.02
2020,11,13,12,08,990.00
2020,11,13,12,09,990.04
2020,11,13,12,10,990.05
2020,11,13,12,11,990.08
2020,11,13,12,12,990.10
2020,11,13,12,13,990.16
2020,11,13,12,14,990.19
2020,11,13,12,15,990.22
2020,11,13,12,16,990.24
2020,11,13,12,17,990.23
2020,11,13,12,18,990.27
2020,11,13,12,19,990.25
2020,11,13,12,20,990.25
2020,11,13,12,21,990.25
2020,11,13,12,22,990.25
2020,11,13,12,23,990.27
2020,11,13,12,24,990.32
2020,11,13,12,25,990.32
2020,11,13,12,26,990.34
2020,11,13,12,27,990.38
2020,11,13,12,28,990.38
2020,11,13,12,29,990.40
2020,11,13,12,30,990.44
2020,11,13,12,31,990.43
2020,11,13,12,32,990.45
2020,11,13,12,33,990.46
2020,11,13,12,34,990.50
2020,11,13,12,35,990.53
2020,11,13,12,36,990.56
2020,11,13,12,37,990.61
2020,11,13,12,38,990.66
2020,11,13,12,39,990.70
2020,11,13,12,40,990.73
2020,11,13,12,41,990.77
2020,11,13,12,42,990.79
2020,11,13,12,43,990.81
2020,11,13,12,44,990.86
2020,11,13,12,45,990.86
2020,11,13,12,46,990.86
2020,11,13,12,47,990.88
2020,11,13,12,48,990.93
2020,11,13,12,49,990.95
2020,11,13,12,50,991.00
2020,11,13,12,51,991.06
2020,11,13,12,52,991.14
2020,11,13,12,53,991.16
2020,11,13,12,54,991.20
2020,11,13,12,55,991.25
2020,11,13,12,56,991.23
2020,11,13,12,57,991.26
2020,11,13,12,58,991.33
2020,11,13,12,59,991.33
2020,11,13,13,00,991.35
2020,11,13,13,01,991.41
2020,11,13,13,02,991.43
2020,11,13,13,03,991.43
2020,11,13,13,04,991.45
2020,11,13,13,05,991.49
2020,11,13,13,06,991.49
2020,11,13,13,07,991.55
2020,11,13,13,08,991.60
2020,11,13,13,09,991.61
2020,11,13,13,10,991.64
2020,11,13,13,11,991.65
2020,11,13,13,12,991.67
2020,11,13,13,13,991.68
2020,11,13,13,14,991.71
2020,11,13,13,15,991.74
2020,11,13,13,16,991.77
2020,11,13,13,17,991.84
2020,11,13,13,18,991.85
2020,11,13,13,19,991.87
2020,11,13,13,20,991.88
2020,11,13,13,21,991.92
2020,11,13,13,22,991.96
2020,11,13,13,23,992.01
2020,11,13,13,24,992.00
2020,11,13,13,25,991.98
2020,11,13,13,26,992.01
2020,11,13,13,27,992.09
2020,11,13,13,28,992.09
2020,11,13,13,29,992.04
2020,11,13,13,30,992.04
2020,11,13,13,31,992.07
2020,11,13,13,32,992.15
2020,11,13,13,33,992.16
2020,11,13,13,34,992.12
2020,11,13,13,35,992.14
2020,11,13,13,36,992.12
2020,11,13,13,37,992.08
2020,11,13,13,38,992.09
2020,11,13,13,39,992.11
2020,11,13,13,40,992.14
2020,11,13,13,41,992.22
2020,11,13,13,42,992.26
2020,11,13,13,43,992.28
2020,11,13,13,44,992.28
2020,11,13,13,45,992.30
2020,11,13,13,46,992.35
2020,11,13,13,47,992.35
2020,11,13,13,48,992.36
2020,11,13,13,49,992.38
2020,11,13,13,50,992.39
2020,11,13,13,51,992.43
2020,11,13,13,52,992.46
2020,11,13,13,53,992.47
2020,11,13,13,54,992.46
2020,11,13,13,55,992.48
2020,11,13,13,56,992.51
2020,11,13,13,57,992.55
2020,11,13,13,58,992.56
2020,11,13,13,59,992.58
2020,11,13,14,00,992.58
2020,11,13,14,01,992.59
2020,11,13,14,02,992.63
2020,11,13,14,03,992.67
2020,11,13,14,04,992.73
2020,11,13,14,05,992.76
2020,11,13,14,06,992.79
2020,11,13,14,07,992.80
2020,11,13,14,08,992.83
2020,11,13,14,09,992.89
2020,11,13,14,10,992.96
2020,11,13,14,11,992.95
2020,11,13,14,12,992.93
2020,11,13,14,13,992.95
2020,11,13,14,14,992.93
2020,11,13,14,15,992.97
2020,11,13,14,16,993.00
2020,11,13,14,17,993.04
2020,11,13,14,18,993.07
2020,11,13,14,19,993.10
2020,11,13,14,20,993.13
2020,11,13,14,21,993.15
2020,11,13,14,22,993.20
2020,11,13,14,23,993.24
2020,11,13,14,24,993.30
2020,11,13,14,25,993.40
2020,11,13,14,26,993.41
2020,11,13,14,27,993.43
2020,11,13,14,28,993.44
2020,11,13,14,29,993.46
2020,11,13,14,30,993.47
2020,11,13,14,31,993.56
2020,11,13,14,32,993.55
2020,11,13,14,33,993.61
2020,11,13,14,34,993.62
2020,11,13,14,35,993.62
2020,11,13,14,36,993.68
2020,11,13,14,37,993.71
2020,11,13,14,38,993.74
2020,11,13,14,39,993.74
2020,11,13,14,40,993.74
2020,11,13,14,41,993.76
2020,11,13,14,42,993.79
2020,11,13,14,43,993.77
2020,11,13,14,44,993.79
2020,11,13,14,45,993.84
2020,11,13,14,46,993.86
2020,11,13,14,47,993.89
2020,11,13,14,48,993.85
2020,11,13,14,49,993.88
2020,11,13,14,50,993.91
2020,11,13,14,51,993.93
2020,11,13,14,52,993.96
2020,11,13,14,53,993.96
2020,11,13,14,54,994.04
2020,11,13,14,55,994.10
2020,11,13,14,56,994.07
2020,11,13,14,57,994.08
2020,11,13,14,58,994.11
2020,11,13,14,59,994.14
2020,11,13,15,00,994.21
2020,11,13,15,01,994.21
2020,11,13,15,02,994.21
2020,11,13,15,03,994.22
2020,11,13,15,04,994.25
2020,11,13,15,05,994.30
2020,11,13,15,06,994.33
2020,11,13,15,07,994.30
2020,11,13,15,08,994.34
2020,11,13,15,09,994.32
2020,11,13,15,10,994.36
2020,11,13,15,11,994.37
2020,11,13,15,12,994.36
2020,11,13,15,13,994.37
2020,11,13,15,14,994.38
2020,11,13,15,15,994.47
2020,11,13,15,16,994.51
2020,11,13,15,17,994.51
2020,11,13,15,18,994.59
2020,11,13,15,19,994.62
2020,11,13,15,20,994.63
2020,11,13,15,21,994.66
2020,11,13,15,22,994.69
2020,11,13,15,23,994.74
2020,11,13,15,24,994.80
2020,11,13,15,25,994.83
2020,11,13,15,26,994.86
2020,11,13,15,27,994.90
2020,11,13,15,28,994.93
2020,11,13,15,29,994.98
2020,11,13,15,30,995.03
2020,11,13,15,31,995.06
2020,11,13,15,32,995.07
2020,11,13,15,33,995.10
2020,11,13,15,34,995.17
2020,11,13,15,35,995.25
2020,11,13,15,36,995.23
2020,11,13,15,37,995.25
2020,11,13,15,38,995.29
2020,11,13,15,39,995.29
2020,11,13,15,40,995.29
2020,11,13,15,41,995.30
2020,11,13,15,42,995.34
2020,11,13,15,43,995.36
2020,11,13,15,44,995.36
2020,11,13,15,45,995.38
2020,11,13,15,46,995.42
2020,11,13,15,47,995.42
2020,11,13,15,48,995.46
2020,11,13,15,49,995.47
2020,11,13,15,50,995.49
2020,11,13,15,51,995.47
2020,11,13,15,52,995.50
2020,11,13,15,53,995.50
2020,11,13,15,54,995.52
2020,11,13,15,55,995.57
2020,11,13,15,56,995.62
2020,11,13,15,57,995.67
2020,11,13,15,58,995.70
2020,11,13,15,59,995.78
2020,11,13,16,00,995.80
2020,11,13,16,01,995.81
2020,11,13,16,02,995.85
2020,11,13,16,03,995.86
2020,11,13,16,04,995.85
2020,11,13,16,05,995.87
2020,11,13,16,06,995.89
2020,11,13,16,07,995.94
2020,11,13,16,08,995.95
2020,11,13,16,09,995.97
2020,11,13,16,10,995.99
2020,11,13,16,11,996.06
2020,11,13,16,12,996.11
2020,11,13,16,13,996.12
2020,11,13,16,14,996.15
2020,11,13,16,15,996.17
2020,11,13,16,16,996.17
2020,11,13,16,17,996.18
2020,11,13,16,18,996.22
2020,11,13,16,19,996.25
2020,11,13,16,20,996.29
2020,11,13,16,21,996.31
2020,11,13,16,22,996.32
2020,11,13,16,23,996.36
2020,11,13,16,24,996.44
2020,11,13,16,25,996.51
2020,11,13,16,26,996.51
2020,11,13,16,27,996.53
2020,11,13,16,28,996.61
2020,11,13,16,29,996.69
2020,11,13,16,30,996.70
2020,11,13,16,31,996.65
2020,11,13,16,32,996.67
2020,11,13,16,33,996.74
2020,11,13,16,34,996.75
2020,11,13,16,35,996.71
2020,11,13,16,36,996.76